START_TIME,STEP,MOV.,M6,t_acc.,M7,t_acc.,M19,t_acc.,H36,t_acc.
1979-08-03 03:00:25.870 ,0,0,0.,12.0,0.,12.0,0.,12.0,0.,12.0
1979-08-03 03:00:37.870 ,0,0,,0,,0,,0,,0
1979-08-03 03:00:52.270 ,0,0,0.,12.0,0.,12.0,0.,12.0,0.,12.0
1979-08-03 03:01:04.270 ,0,0,,0,,0,,0,,0
1979-08-03 03:01:13.870 ,0,0,0.,12.0,0.,12.0,0.,12.0,0.,12.0
1979-08-03 03:01:25.870 ,0,0,0.,12.0,0.,12.0,0.,12.0,0.,12.0
1979-08-03 03:01:37.870 ,2,0,0.,12.0,0.,12.0,0.,12.0,0.,12.0
1979-08-03 03:01:49.870 ,2,0,,0,,0,,0,,0
1979-08-03 03:02:01.870 ,0,0,,0,,0,,0,,0
1979-08-03 03:02:13.870 ,0,0,,0,,0,,0,,0
1979-08-03 03:02:26.470 ,0,0,0.,12.0,0.,12.0,0.,12.0,0.,12.0
1979-08-03 03:02:38.470 ,0,0,,0,,0,,0,,0
1979-08-03 03:02:49.870 ,0,0,,0,,0,,0,,0
1979-08-03 03:03:01.870 ,0,0,,0,,0,,0,,0
1979-08-03 03:03:34.870 ,0,0,,0,,0,,0,,0
1979-08-03 03:03:46.870 ,0,0,,0,,0,,0,,0
1979-08-03 03:03:37.870 ,0,0,,0,,0,,0,,0
1979-08-03 03:03:49.870 ,0,0,,0,,0,,0,,0
1979-08-03 03:03:37.870 ,0,0,,0,,0,,0,,0
1979-08-03 03:03:49.870 ,0,0,0.,12.0,0.,12.0,0.,12.0,0.,12.0
1979-08-03 03:04:02.470 ,6,1,,0,,0,,0,,0
1979-08-03 03:04:14.470 ,6,1,0.,12.0,0.,12.0,0.,12.0,0.,12.0
1979-08-03 03:04:25.870 ,6,0,0.,12.0,0.,12.0,0.,12.0,0.,12.0
1979-08-03 03:04:37.870 ,6,0,0.,12.0,0.,12.0,0.,12.0,0.,12.0
1979-08-03 03:04:49.870 ,7,1,,0,,0,,0,,0
1979-08-03 03:05:01.870 ,7,1,0.,12.0,0.,12.0,0.,12.0,0.,12.0
1979-08-03 03:05:13.870 ,7,0,0.,12.0,0.,12.0,0.,12.0,0.,12.0
1979-08-03 03:05:25.870 ,7,0,0.,12.0,0.,12.0,0.,12.0,0.,12.0
1979-08-03 03:05:37.870 ,0,0,0.,12.0,0.,12.0,0.,12.0,0.,12.0
1979-08-03 03:05:49.870 ,0,0,0.,12.0,0.,12.0,0.,12.0,0.,12.0
1979-08-03 03:06:01.870 ,0,0,0.,12.0,0.,12.0,0.,12.0,0.,12.0
1979-08-03 03:06:13.870 ,0,0,0.,12.0,0.,12.0,0.,12.0,0.,12.0
1979-08-03 03:06:25.870 ,6,1,0.,12.0,0.,12.0,0.,12.0,0.,12.0
1979-08-03 03:06:37.870 ,6,1,0.,12.0,0.,12.0,0.,12.0,0.,12.0
1979-08-03 03:06:49.870 ,0,0,0.,12.0,0.,12.0,0.,12.0,0.,12.0
1979-08-03 03:07:01.870 ,0,0,0.,12.0,0.,12.0,0.,12.0,0.,12.0
1979-08-03 03:07:13.870 ,5,1,,0,,0,,0,,0
1979-08-03 03:07:25.870 ,5,1,,0,,0,,0,,0
1979-08-03 03:07:37.870 ,5,0,,0,,0,,0,,0
1979-08-03 03:07:49.870 ,5,0,0.,12.0,0.,12.0,0.,12.0,0.,12.0
1979-08-03 03:08:01.870 ,4,1,,0,,0,,0,,0
1979-08-03 03:08:13.870 ,4,1,0.,12.0,0.,12.0,0.,12.0,0.,12.0
1979-08-03 03:08:25.870 ,0,0,0.,12.0,0.,12.0,0.,12.0,0.,12.0
1979-08-03 03:08:37.870 ,0,0,0.,12.0,0.,12.0,0.,12.0,0.,12.0
1979-08-03 03:08:49.870 ,3,1,0.,12.0,0.,12.0,0.,12.0,0.,12.0
1979-08-03 03:09:01.870 ,3,1,0.,12.0,0.,12.0,0.,12.0,0.,12.0
1979-08-03 03:09:13.870 ,0,0,0.,12.0,0.,12.0,0.,12.0,0.,12.0
1979-08-03 03:09:25.870 ,0,0,0.,12.0,0.,12.0,0.,12.0,0.,12.0
1979-08-03 03:09:37.870 ,2,1,,0,,0,,0,,0
1979-08-03 03:09:49.870 ,2,1,0.,12.0,0.,12.0,0.,12.0,0.,12.0
1979-08-03 03:10:01.870 ,2,0,0.,12.0,0.,12.0,0.,12.0,0.,12.0
1979-08-03 03:10:13.870 ,2,0,0.,12.0,0.,12.0,0.,12.0,0.,12.0
1979-08-03 03:10:25.870 ,0,0,0.,12.0,0.,12.0,0.,12.0,0.,12.0
1979-08-03 03:10:37.870 ,0,0,,0,,0,,0,,0
1979-08-03 03:10:49.870 ,0,0,,0,,0,,0,,0
1979-08-03 03:11:01.870 ,0,0,,0,,0,,0,,0
1979-08-03 03:11:13.870 ,0,1,0.,12.0,0.,12.0,0.,12.0,0.,12.0
1979-08-03 03:11:25.870 ,0,1,0.,12.0,0.,12.0,0.,12.0,0.,12.0
1979-08-03 03:11:37.870 ,0,0,0.,12.0,0.,12.0,0.,12.0,0.,12.0
1979-08-03 03:11:49.870 ,0,0,,0,,0,,0,,0
1979-08-03 03:12:01.870 ,0,0,,0,,0,,0,,0
1979-08-03 03:12:13.870 ,0,0,,0,,0,,0,,0
1979-08-03 03:12:25.870 ,0,0,0.,12.0,0.,12.0,0.,12.0,0.,12.0
1979-08-03 03:12:37.870 ,0,0,0.,12.0,0.,12.0,0.,12.0,1.,12.0
1979-08-03 03:12:49.870 ,1,1,,0,,0,,0,,0
1979-08-03 03:13:01.870 ,1,1,0.,12.0,0.,12.0,0.,12.0,0.,12.0
1979-08-03 03:13:13.870 ,0,0,0.,12.0,0.,12.0,0.,12.0,0.,12.0
1979-08-03 03:13:25.870 ,0,0,0.,12.0,0.,12.0,0.,12.0,0.,12.0
1979-08-03 03:13:37.870 ,0,0,0.,12.0,0.,12.0,0.,12.0,0.,12.0
1979-08-03 03:13:49.870 ,0,0,0.,12.0,0.,12.0,0.,12.0,0.,12.0
1979-08-03 03:14:01.870 ,0,0,0.,12.0,0.,12.0,0.,12.0,0.,12.0
1979-08-03 03:14:13.870 ,0,0,0.,12.0,0.,12.0,0.,12.0,0.,12.0
1979-08-03 03:14:25.870 ,3,1,0.,12.0,0.,12.0,0.,12.0,0.,12.0
1979-08-03 03:14:37.870 ,3,1,0.,12.0,0.,12.0,0.,12.0,0.,12.0
1979-08-03 03:14:49.870 ,3,0,0.,12.0,0.,12.0,0.,12.0,0.,12.0
1979-08-03 03:15:01.870 ,3,0,,0,,0,,0,,0
1979-08-03 03:15:13.870 ,0,0,0.,12.0,0.,12.0,0.,12.0,0.,12.0
1979-08-03 03:15:25.870 ,0,0,0.,12.0,0.,12.0,0.,12.0,0.,12.0
1979-08-03 03:15:37.870 ,0,0,0.,12.0,0.,12.0,0.,12.0,0.,12.0
1979-08-03 03:15:49.870 ,0,0,0.,12.0,0.,12.0,0.,12.0,0.,12.0
1979-08-03 03:16:01.870 ,5,1,,0,,0,,0,,0
1979-08-03 03:16:13.870 ,5,1,0.,12.0,0.,12.0,0.,12.0,0.,12.0
1979-08-03 03:16:25.870 ,0,0,0.,12.0,0.,12.0,0.,12.0,0.,12.0
1979-08-03 03:16:37.870 ,0,0,0.,12.0,0.,12.0,0.,12.0,0.,12.0
1979-08-03 03:16:49.870 ,0,0,,0,,0,,0,,0
1979-08-03 03:17:01.870 ,0,0,0.,12.0,0.,12.0,0.,12.0,0.,12.0
1979-08-03 03:17:13.870 ,0,0,,0,,0,,0,,0
1979-08-03 03:17:25.870 ,0,0,0.,12.0,0.,12.0,0.,12.0,0.,12.0
1979-08-03 03:17:37.870 ,7,1,0.,12.0,0.,12.0,0.,12.0,0.,12.0
1979-08-03 03:17:49.870 ,7,1,0.,12.0,0.,12.0,0.,12.0,0.,12.0
1979-08-03 03:18:01.870 ,0,0,0.,12.0,0.,12.0,0.,12.0,0.,12.0
1979-08-03 03:18:13.870 ,0,0,0.,12.0,0.,12.0,0.,12.0,0.,12.0
1979-08-03 03:18:25.870 ,0,0,,0,,0,,0,,0
1979-08-03 03:18:37.870 ,0,0,,0,,0,,0,,0
1979-08-03 03:18:49.870 ,0,0,0.,12.0,0.,12.0,0.,12.0,0.,12.0
1979-08-03 03:19:01.870 ,0,0,0.,12.0,0.,12.0,0.,12.0,0.,12.0
1979-08-03 03:19:13.870 ,0,0,0.,12.0,0.,12.0,0.,12.0,0.,12.0
1979-08-03 03:19:25.870 ,0,0,0.,12.0,0.,12.0,0.,12.0,0.,12.0
1979-08-03 03:19:37.870 ,0,0,0.,12.0,0.,12.0,0.,12.0,0.,12.0
1979-08-03 03:19:49.870 ,0,0,0.,12.0,0.,12.0,0.,12.0,0.,12.0
1979-08-03 03:20:01.870 ,5,1,,0,,0,,0,,0
1979-08-03 03:20:13.870 ,5,1,0.,12.0,0.,12.0,0.,12.0,0.,12.0
1979-08-03 03:20:25.870 ,7,0,0.,12.0,0.,12.0,0.,12.0,0.,12.0
1979-08-03 03:20:37.870 ,7,0,,0,,0,,0,,0
1979-08-03 03:20:51.070 ,4,1,0.,12.0,0.,12.0,0.,12.0,0.,12.0
1979-08-03 03:21:03.070 ,4,1,0.,12.0,0.,12.0,0.,12.0,0.,12.0
1979-08-03 03:21:13.870 ,4,0,0.,12.0,0.,12.0,0.,12.0,0.,12.0
1979-08-03 03:21:25.870 ,4,0,0.,12.0,0.,12.0,0.,12.0,0.,12.0
1979-08-03 03:21:37.870 ,3,1,0.,12.0,0.,12.0,0.,12.0,0.,12.0
1979-08-03 03:21:49.870 ,3,1,0.,12.0,0.,12.0,0.,12.0,0.,12.0
1979-08-03 03:22:01.870 ,3,0,,0,,0,,0,,0
1979-08-03 03:22:13.870 ,3,0,0.,12.0,0.,12.0,0.,12.0,0.,12.0
1979-08-03 03:22:25.870 ,2,1,0.,12.0,0.,12.0,0.,12.0,0.,12.0
1979-08-03 03:22:37.870 ,2,1,0.,12.0,0.,12.0,0.,12.0,0.,12.0
1979-08-03 03:22:49.870 ,0,0,,0,,0,,0,,0
1979-08-03 03:23:01.870 ,0,0,0.,12.0,0.,12.0,0.,12.0,0.,12.0
1979-08-03 03:23:15.070 ,0,0,0.,12.0,0.,12.0,0.,12.0,0.,12.0
1979-08-03 03:23:27.070 ,0,0,0.,12.0,0.,12.0,0.,12.0,0.,12.0
1979-08-03 03:23:37.870 ,0,0,0.,12.0,0.,12.0,0.,12.0,0.,12.0
1979-08-03 03:23:49.870 ,0,0,0.,12.0,0.,12.0,0.,12.0,0.,12.0
1979-08-03 03:24:01.870 ,0,0,0.,12.0,0.,12.0,0.,12.0,0.,12.0
1979-08-03 03:24:13.870 ,0,0,0.,12.0,0.,12.0,0.,12.0,0.,12.0
1979-08-03 03:24:25.870 ,0,0,0.,12.0,0.,12.0,0.,12.0,0.,12.0
1979-08-03 03:24:37.870 ,0,0,0.,12.0,0.,12.0,0.,12.0,0.,12.0
1979-08-03 03:24:49.870 ,0,1,,0,,0,,0,,0
1979-08-03 03:25:01.870 ,0,1,0.,12.0,0.,12.0,0.,12.0,0.,12.0
1979-08-03 03:25:13.870 ,0,0,0.,12.0,0.,12.0,0.,12.0,0.,12.0
1979-08-03 03:25:25.870 ,0,0,0.,12.0,0.,12.0,0.,12.0,0.,12.0
1979-08-03 03:25:39.070 ,1,1,0.,12.0,0.,12.0,0.,12.0,0.,12.0
1979-08-03 03:25:51.070 ,1,1,0.,12.0,0.,12.0,0.,12.0,0.,12.0
1979-08-03 03:26:01.870 ,1,0,0.,12.0,0.,12.0,0.,12.0,0.,12.0
1979-08-03 03:26:13.870 ,1,0,0.,12.0,0.,12.0,0.,12.0,0.,12.0
1979-08-03 03:26:25.870 ,2,1,0.,12.0,0.,12.0,0.,12.0,0.,12.0
1979-08-03 03:26:37.870 ,2,1,0.,12.0,0.,12.0,0.,12.0,0.,12.0
1979-08-03 03:26:49.870 ,2,0,,0,,0,,0,,0
1979-08-03 03:27:01.870 ,2,0,0.,12.0,0.,12.0,0.,12.0,0.,12.0
1979-08-03 03:27:13.870 ,2,0,0.,12.0,0.,12.0,0.,12.0,0.,12.0
1979-08-03 03:27:25.870 ,2,0,,0,,0,,0,,0
1979-08-03 03:27:37.870 ,3,0,0.,12.0,0.,12.0,0.,12.0,0.,12.0
1979-08-03 03:27:49.870 ,3,0,0.,12.0,0.,12.0,0.,12.0,0.,12.0
1979-08-03 03:28:01.870 ,0,0,0.,12.0,0.,12.0,0.,12.0,0.,12.0
1979-08-03 03:28:13.870 ,0,0,0.,12.0,0.,12.0,0.,12.0,0.,12.0
1979-08-03 03:28:25.870 ,0,0,0.,12.0,0.,12.0,0.,12.0,0.,12.0
1979-08-03 03:28:37.870 ,0,0,0.,12.0,0.,12.0,0.,12.0,0.,12.0
1979-08-03 03:28:49.870 ,5,1,0.,12.0,0.,12.0,0.,12.0,0.,12.0
1979-08-03 03:29:01.870 ,5,1,0.,12.0,0.,12.0,0.,12.0,0.,12.0
1979-08-03 03:29:13.870 ,5,0,0.,12.0,0.,12.0,0.,12.0,0.,12.0
1979-08-03 03:29:25.870 ,5,0,0.,12.0,0.,12.0,0.,12.0,0.,12.0
1979-08-03 03:29:37.870 ,6,1,0.,12.0,0.,12.0,0.,12.0,0.,12.0
1979-08-03 03:29:49.870 ,6,1,1.,12.0,0.,12.0,0.,12.0,0.,12.0
1979-08-03 03:30:01.870 ,6,0,0.,12.0,0.,12.0,0.,12.0,0.,12.0
1979-08-03 03:30:13.870 ,6,0,0.,12.0,0.,12.0,0.,12.0,0.,12.0
1979-08-03 03:30:25.870 ,0,0,0.,12.0,0.,12.0,0.,12.0,0.,12.0
1979-08-03 03:30:37.870 ,0,0,0.,12.0,0.,12.0,0.,12.0,0.,12.0
1979-08-03 03:30:49.870 ,7,0,0.,12.0,0.,12.0,0.,12.0,0.,12.0
1979-08-03 03:31:01.870 ,7,0,0.,12.0,0.,12.0,0.,12.0,0.,12.0
1979-08-03 03:31:13.870 ,4,1,,0,,0,,0,,0
1979-08-03 03:31:25.870 ,4,1,0.,12.0,0.,12.0,0.,12.0,0.,12.0
1979-08-03 03:31:37.870 ,0,1,,0,,0,,0,,0
1979-08-03 03:31:49.870 ,0,1,0.,12.0,0.,12.0,0.,12.0,0.,12.0
1979-08-03 03:32:01.870 ,1,1,0.,12.0,0.,12.0,0.,12.0,0.,12.0
1979-08-03 03:32:13.870 ,1,1,,0,,0,,0,,0
1979-08-03 03:32:25.870 ,7,1,0.,12.0,0.,12.0,0.,12.0,0.,12.0
1979-08-03 03:32:37.870 ,7,1,0.,12.0,0.,12.0,0.,12.0,0.,12.0
1979-08-03 03:32:49.870 ,4,1,,0,,0,,0,,0
1979-08-03 03:33:01.870 ,4,1,0.,12.0,0.,12.0,0.,12.0,0.,12.0
1979-08-03 03:33:13.870 ,0,1,,0,,0,,0,,0
1979-08-03 03:33:25.870 ,0,1,0.,12.0,0.,12.0,0.,12.0,0.,12.0
1979-08-03 03:33:37.870 ,3,1,,0,,0,,0,,0
1979-08-03 03:33:49.870 ,3,1,0.,12.0,0.,12.0,0.,12.0,0.,12.0
1979-08-03 03:34:01.870 ,0,0,,0,,0,,0,,0
1979-08-03 03:34:13.870 ,0,0,,0,,0,,0,,0
1979-08-03 03:34:25.870 ,4,1,0.,12.0,0.,12.0,0.,12.0,0.,12.0
1979-08-03 03:34:37.870 ,4,1,0.,12.0,0.,12.0,0.,12.0,0.,12.0
1979-08-03 03:34:49.870 ,0,1,0.,12.0,0.,12.0,0.,12.0,0.,12.0
1979-08-03 03:35:01.870 ,0,1,0.,12.0,0.,12.0,0.,12.0,0.,12.0
1979-08-03 03:35:13.870 ,3,1,0.,12.0,0.,12.0,0.,12.0,0.,12.0
1979-08-03 03:35:25.870 ,3,1,0.,12.0,0.,12.0,0.,12.0,0.,12.0
1979-08-03 03:35:37.870 ,7,1,0.,12.0,0.,12.0,0.,12.0,0.,12.0
1979-08-03 03:35:49.870 ,7,1,0.,12.0,0.,12.0,0.,12.0,0.,12.0
1979-08-03 03:36:01.870 ,6,1,0.,12.0,0.,12.0,0.,12.0,0.,12.0
1979-08-03 03:36:13.870 ,6,1,,0,,0,,0,,0
1979-08-03 03:36:25.870 ,0,1,0.,12.0,0.,12.0,0.,12.0,0.,12.0
1979-08-03 03:36:37.870 ,0,1,0.,12.0,0.,12.0,0.,12.0,0.,12.0
1979-08-03 03:36:49.870 ,3,1,,0,,0,,0,,0
1979-08-03 03:37:01.870 ,3,1,0.,12.0,0.,12.0,0.,12.0,0.,12.0
1979-08-03 03:37:13.870 ,5,1,,0,,0,,0,,0
1979-08-03 03:37:25.870 ,5,1,,0,,0,,0,,0
1979-08-03 03:37:37.870 ,0,0,0.,12.0,0.,12.0,0.,12.0,0.,12.0
1979-08-03 03:37:49.870 ,0,0,0.,12.0,0.,12.0,0.,12.0,0.,12.0
1979-08-03 03:38:01.870 ,0,0,0.,12.0,0.,12.0,0.,12.0,0.,12.0
1979-08-03 03:38:13.870 ,0,0,0.,12.0,0.,12.0,0.,12.0,0.,12.0
1979-08-03 03:38:26.470 ,0,0,0.,12.0,0.,12.0,0.,12.0,0.,12.0
1979-08-03 03:38:38.470 ,0,0,0.,12.0,0.,12.0,0.,12.0,0.,12.0
1979-08-03 03:38:49.870 ,7,1,0.,12.0,0.,12.0,0.,12.0,0.,12.0
1979-08-03 03:39:01.870 ,7,1,0.,12.0,0.,12.0,0.,12.0,0.,12.0
1979-08-03 03:39:13.870 ,4,1,0.,12.0,0.,12.0,0.,12.0,0.,12.0
1979-08-03 03:39:25.870 ,4,1,0.,12.0,0.,12.0,0.,12.0,0.,12.0
1979-08-03 03:39:37.870 ,0,1,0.,12.0,0.,12.0,0.,12.0,0.,12.0
1979-08-03 03:39:49.870 ,0,1,0.,12.0,0.,12.0,0.,12.0,0.,12.0
1979-08-03 03:40:01.870 ,0,0,0.,12.0,0.,12.0,0.,12.0,0.,12.0
1979-08-03 03:40:13.870 ,0,0,,0,,0,,0,,0
1979-08-03 03:40:25.870 ,0,0,0.,12.0,0.,12.0,0.,12.0,0.,12.0
1979-08-03 03:40:37.870 ,0,0,0.,12.0,0.,12.0,0.,12.0,0.,12.0
1979-08-03 03:40:49.870 ,4,1,0.,12.0,0.,12.0,0.,12.0,0.,12.0
1979-08-03 03:41:01.870 ,4,1,0.,12.0,0.,12.0,0.,12.0,0.,12.0
1979-08-03 03:41:13.870 ,0,0,0.,12.0,0.,12.0,0.,12.0,0.,12.0
1979-08-03 03:41:25.870 ,0,0,0.,12.0,0.,12.0,0.,12.0,0.,12.0
1979-08-03 03:41:37.870 ,0,0,0.,12.0,0.,12.0,0.,12.0,0.,12.0
1979-08-03 03:41:49.870 ,0,0,0.,12.0,0.,12.0,0.,12.0,0.,12.0
1979-08-03 03:42:01.870 ,0,0,0.,12.0,0.,12.0,0.,12.0,0.,12.0
1979-08-03 03:42:13.870 ,0,0,,0,,0,,0,,0
1979-08-03 03:42:25.870 ,5,1,0.,12.0,0.,12.0,0.,12.0,1.,12.0
1979-08-03 03:42:37.870 ,5,1,0.,12.0,0.,12.0,0.,12.0,0.,12.0
1979-08-03 03:42:49.870 ,5,0,0.,12.0,0.,12.0,0.,12.0,0.,12.0
1979-08-03 03:43:01.870 ,5,0,0.,12.0,0.,12.0,0.,12.0,0.,12.0
1979-08-03 03:43:13.870 ,4,1,0.,12.0,0.,12.0,0.,12.0,0.,12.0
1979-08-03 03:43:25.870 ,4,1,0.,12.0,0.,12.0,0.,12.0,0.,12.0
1979-08-03 03:43:37.870 ,4,0,0.,12.0,0.,12.0,0.,12.0,0.,12.0
1979-08-03 03:43:49.870 ,4,0,0.,12.0,0.,12.0,0.,12.0,0.,12.0
1979-08-03 03:44:01.870 ,0,0,0.,12.0,0.,12.0,0.,12.0,0.,12.0
1979-08-03 03:44:13.870 ,0,0,0.,12.0,0.,12.0,0.,12.0,0.,12.0
1979-08-03 03:44:25.870 ,0,0,0.,12.0,0.,12.0,0.,12.0,0.,12.0
1979-08-03 03:44:37.870 ,0,0,,0,,0,,0,,0
1979-08-03 03:44:49.870 ,2,1,0.,12.0,0.,12.0,0.,12.0,0.,12.0
1979-08-03 03:45:01.870 ,2,1,0.,12.0,0.,12.0,0.,12.0,0.,12.0
1979-08-03 03:45:13.870 ,0,0,0.,12.0,0.,12.0,0.,12.0,0.,12.0
1979-08-03 03:45:25.870 ,0,0,0.,12.0,0.,12.0,0.,12.0,0.,12.0
1979-08-03 03:45:40.270 ,1,1,0.,12.0,0.,12.0,0.,12.0,0.,12.0
1979-08-03 03:45:52.270 ,1,1,0.,12.0,0.,12.0,0.,12.0,0.,12.0
1979-08-03 03:46:01.870 ,1,0,0.,12.0,0.,12.0,0.,12.0,0.,12.0
1979-08-03 03:46:13.870 ,1,0,0.,12.0,0.,12.0,0.,12.0,0.,12.0
1979-08-03 03:46:25.870 ,0,1,0.,12.0,0.,12.0,0.,12.0,0.,12.0
1979-08-03 03:46:37.870 ,0,1,1.,12.0,0.,12.0,0.,12.0,0.,12.0
1979-08-03 03:46:49.870 ,0,0,0.,12.0,0.,12.0,0.,12.0,0.,12.0
1979-08-03 03:47:01.870 ,0,0,0.,12.0,0.,12.0,0.,12.0,0.,12.0
1979-08-03 03:47:13.870 ,0,1,0.,12.0,0.,12.0,0.,12.0,0.,12.0
1979-08-03 03:47:25.870 ,0,1,0.,12.0,0.,12.0,0.,12.0,0.,12.0
1979-08-03 03:47:37.870 ,0,0,0.,12.0,0.,12.0,0.,12.0,0.,12.0
1979-08-03 03:47:49.870 ,0,0,0.,12.0,0.,12.0,0.,12.0,0.,12.0
1979-08-03 03:48:01.870 ,1,1,0.,12.0,0.,12.0,0.,12.0,0.,12.0
1979-08-03 03:48:13.870 ,1,1,0.,12.0,0.,12.0,0.,12.0,0.,12.0
1979-08-03 03:48:25.870 ,1,0,0.,12.0,0.,12.0,0.,12.0,0.,12.0
1979-08-03 03:48:37.870 ,1,0,0.,12.0,0.,12.0,0.,12.0,0.,12.0
1979-08-03 03:48:49.870 ,1,0,0.,12.0,0.,12.0,0.,12.0,0.,12.0
1979-08-03 03:49:01.870 ,1,0,,0,,0,,0,,0
1979-08-03 03:49:13.870 ,0,0,0.,12.0,0.,12.0,0.,12.0,0.,12.0
1979-08-03 03:49:25.870 ,0,0,0.,12.0,0.,12.0,0.,12.0,0.,12.0
1979-08-03 03:50:13.870 ,0,0,,0,,0,,0,,0
1979-08-03 03:50:25.870 ,0,0,0.,12.0,0.,12.0,0.,12.0,0.,12.0
1979-08-03 03:50:25.870 ,3,0,0.,12.0,0.,12.0,0.,12.0,0.,12.0
1979-08-03 03:50:37.870 ,3,0,,0,,0,,0,,0
1979-08-03 03:50:49.870 ,4,0,0.,12.0,0.,12.0,0.,12.0,0.,12.0
1979-08-03 03:51:01.870 ,4,0,0.,12.0,0.,12.0,0.,12.0,0.,12.0
1979-08-03 03:51:16.270 ,0,0,0.,12.0,0.,12.0,0.,12.0,0.,12.0
1979-08-03 03:51:28.270 ,0,0,0.,12.0,0.,12.0,0.,12.0,0.,12.0
1979-08-03 03:51:37.870 ,0,0,0.,12.0,0.,12.0,0.,12.0,0.,12.0
1979-08-03 03:51:49.870 ,0,0,0.,12.0,0.,12.0,0.,12.0,0.,12.0
1979-08-03 03:52:01.870 ,6,1,0.,12.0,0.,12.0,0.,12.0,0.,12.0
1979-08-03 03:52:13.870 ,6,1,0.,12.0,0.,12.0,0.,12.0,0.,12.0
1979-08-03 03:52:25.870 ,6,0,,0,,0,,0,,0
1979-08-03 03:52:37.870 ,6,0,0.,12.0,0.,12.0,0.,12.0,0.,12.0
1979-08-03 03:52:49.870 ,7,1,0.,12.0,0.,12.0,0.,12.0,0.,12.0
1979-08-03 03:53:01.870 ,7,1,0.,12.0,0.,12.0,0.,12.0,0.,12.0
1979-08-03 03:53:13.870 ,7,0,0.,12.0,0.,12.0,0.,12.0,0.,12.0
1979-08-03 03:53:25.870 ,7,0,0.,12.0,0.,12.0,0.,12.0,0.,12.0
1979-08-03 03:53:37.870 ,7,1,0.,12.0,0.,12.0,0.,12.0,0.,12.0
1979-08-03 03:53:49.870 ,7,1,0.,12.0,0.,12.0,0.,12.0,0.,12.0
1979-08-03 03:54:01.870 ,7,0,0.,12.0,0.,12.0,0.,12.0,0.,12.0
1979-08-03 03:54:13.870 ,7,0,,0,,0,,0,,0
1979-08-03 03:54:25.870 ,6,1,0.,12.0,0.,12.0,0.,12.0,0.,12.0
1979-08-03 03:54:37.870 ,6,1,1.,12.0,0.,12.0,0.,12.0,0.,12.0
1979-08-03 03:54:49.870 ,6,0,0.,12.0,0.,12.0,0.,12.0,0.,12.0
1979-08-03 03:55:01.870 ,6,0,0.,12.0,0.,12.0,0.,12.0,0.,12.0
1979-08-03 03:55:13.870 ,5,1,0.,12.0,0.,12.0,0.,12.0,0.,12.0
1979-08-03 03:55:25.870 ,5,1,0.,12.0,0.,12.0,0.,12.0,0.,12.0
1979-08-03 03:55:37.870 ,5,0,,0,,0,,0,,0
1979-08-03 03:55:49.870 ,5,0,0.,12.0,0.,12.0,0.,12.0,0.,12.0
1979-08-03 03:56:01.870 ,4,1,,0,,0,,0,,0
1979-08-03 03:56:13.870 ,4,1,0.,12.0,0.,12.0,0.,12.0,0.,12.0
1979-08-03 03:56:25.870 ,0,0,0.,12.0,0.,12.0,0.,12.0,0.,12.0
1979-08-03 03:56:37.870 ,0,0,0.,12.0,0.,12.0,0.,12.0,0.,12.0
1979-08-03 03:56:49.870 ,3,1,0.,12.0,0.,12.0,0.,12.0,0.,12.0
1979-08-03 03:57:01.870 ,3,1,0.,12.0,0.,12.0,0.,12.0,0.,12.0
1979-08-03 03:57:13.870 ,3,0,0.,12.0,0.,12.0,0.,12.0,0.,12.0
1979-08-03 03:57:25.870 ,3,0,0.,12.0,0.,12.0,0.,12.0,0.,12.0
1979-08-03 03:57:37.870 ,2,1,,0,,0,,0,,0
1979-08-03 03:57:49.870 ,2,1,0.,12.0,0.,12.0,0.,12.0,0.,12.0
1979-08-03 03:58:01.870 ,2,0,0.,12.0,0.,12.0,0.,12.0,0.,12.0
1979-08-03 03:58:13.870 ,2,0,0.,12.0,0.,12.0,0.,12.0,0.,12.0
1979-08-03 03:58:25.870 ,1,1,0.,12.0,0.,12.0,0.,12.0,0.,12.0
1979-08-03 03:58:37.870 ,1,1,0.,12.0,0.,12.0,0.,12.0,0.,12.0
1979-08-03 03:58:49.870 ,1,0,,0,,0,,0,,0
1979-08-03 03:59:01.870 ,1,0,0.,12.0,0.,12.0,0.,12.0,0.,12.0
1979-08-03 03:59:13.870 ,0,1,0.,12.0,0.,12.0,0.,12.0,0.,12.0
1979-08-03 03:59:25.870 ,0,1,0.,12.0,0.,12.0,0.,12.0,0.,12.0
1979-08-03 03:59:37.870 ,0,0,0.,12.0,0.,12.0,0.,12.0,0.,12.0
1979-08-03 03:59:49.870 ,0,0,0.,12.0,0.,12.0,0.,12.0,0.,12.0
1979-08-03 04:00:02.470 ,0,1,0.,12.0,0.,12.0,0.,12.0,0.,12.0
1979-08-03 04:00:14.470 ,0,1,0.,12.0,0.,12.0,0.,12.0,0.,12.0
1979-08-03 04:00:25.870 ,0,0,0.,12.0,0.,12.0,0.,12.0,0.,12.0
1979-08-03 04:00:37.870 ,0,0,0.,12.0,0.,12.0,0.,12.0,0.,12.0
1979-08-03 04:00:49.870 ,1,1,,0,,0,,0,,0
1979-08-03 04:01:01.870 ,1,1,0.,12.0,0.,12.0,0.,12.0,0.,12.0
1979-08-03 04:01:13.870 ,1,0,0.,12.0,0.,12.0,0.,12.0,0.,12.0
1979-08-03 04:01:25.870 ,1,0,0.,12.0,0.,12.0,0.,12.0,0.,12.0
1979-08-03 04:01:37.870 ,0,0,0.,12.0,0.,12.0,0.,12.0,0.,12.0
1979-08-03 04:01:49.870 ,0,0,0.,12.0,0.,12.0,0.,12.0,0.,12.0
1979-08-03 04:02:01.870 ,0,0,0.,12.0,0.,12.0,0.,12.0,0.,12.0
1979-08-03 04:02:13.870 ,0,0,0.,12.0,0.,12.0,0.,12.0,0.,12.0
1979-08-03 04:02:25.870 ,0,0,0.,12.0,0.,12.0,0.,12.0,0.,12.0
1979-08-03 04:02:37.870 ,0,0,0.,12.0,0.,12.0,0.,12.0,0.,12.0
1979-08-03 04:02:49.870 ,0,0,0.,12.0,0.,12.0,0.,12.0,0.,12.0
1979-08-03 04:03:01.870 ,0,0,0.,12.0,0.,12.0,0.,12.0,0.,12.0
1979-08-03 04:03:13.870 ,4,1,0.,12.0,0.,12.0,0.,12.0,0.,12.0
1979-08-03 04:03:25.870 ,4,1,0.,12.0,0.,12.0,0.,12.0,0.,12.0
1979-08-03 04:03:37.870 ,0,0,0.,12.0,0.,12.0,0.,12.0,0.,12.0
1979-08-03 04:03:49.870 ,0,0,0.,12.0,0.,12.0,0.,12.0,0.,12.0
1979-08-03 04:04:01.870 ,5,1,0.,12.0,0.,12.0,0.,12.0,0.,12.0
1979-08-03 04:04:13.870 ,5,1,0.,12.0,0.,12.0,0.,12.0,0.,12.0
1979-08-03 04:04:25.870 ,5,0,0.,12.0,0.,12.0,0.,12.0,0.,12.0
1979-08-03 04:04:37.870 ,5,0,0.,12.0,0.,12.0,0.,12.0,0.,12.0
1979-08-03 04:04:49.870 ,6,1,0.,12.0,0.,12.0,0.,12.0,0.,12.0
1979-08-03 04:05:01.870 ,6,1,0.,12.0,0.,12.0,0.,12.0,0.,12.0
1979-08-03 04:05:13.870 ,0,0,0.,12.0,0.,12.0,0.,12.0,0.,12.0
1979-08-03 04:05:25.870 ,0,0,0.,12.0,0.,12.0,0.,12.0,0.,12.0
1979-08-03 04:05:37.870 ,7,1,0.,12.0,0.,12.0,0.,12.0,0.,12.0
1979-08-03 04:05:49.870 ,7,1,0.,12.0,0.,12.0,0.,12.0,0.,12.0
1979-08-03 04:06:01.870 ,7,0,0.,12.0,0.,12.0,0.,12.0,0.,12.0
1979-08-03 04:06:13.870 ,7,0,0.,12.0,0.,12.0,0.,12.0,0.,12.0
1979-08-03 04:06:25.870 ,0,0,0.,12.0,0.,12.0,0.,12.0,0.,12.0
1979-08-03 04:06:37.870 ,0,0,0.,12.0,0.,12.0,0.,12.0,0.,12.0
1979-08-03 04:06:49.870 ,0,0,0.,12.0,0.,12.0,0.,12.0,0.,12.0
1979-08-03 04:07:01.870 ,0,0,0.,12.0,0.,12.0,0.,12.0,0.,12.0
1979-08-03 04:07:13.870 ,6,1,0.,12.0,0.,12.0,0.,12.0,0.,12.0
1979-08-03 04:07:25.870 ,6,1,0.,12.0,0.,12.0,0.,12.0,0.,12.0
1979-08-03 04:07:37.870 ,6,0,0.,12.0,0.,12.0,0.,12.0,0.,12.0
1979-08-03 04:07:49.870 ,6,0,,0,,0,,0,,0
1979-08-03 04:08:01.870 ,5,1,,0,,0,,0,,0
1979-08-03 04:08:13.870 ,5,1,0.,12.0,0.,12.0,0.,12.0,0.,12.0
1979-08-03 04:08:25.870 ,5,0,0.,12.0,0.,12.0,0.,12.0,0.,12.0
1979-08-03 04:08:37.870 ,5,0,0.,12.0,0.,12.0,0.,12.0,0.,12.0
1979-08-03 04:08:49.870 ,4,1,,0,,0,,0,,0
1979-08-03 04:09:01.870 ,4,1,0.,12.0,0.,12.0,0.,12.0,0.,12.0
1979-08-03 04:09:13.870 ,4,0,0.,12.0,0.,12.0,0.,12.0,0.,12.0
1979-08-03 04:09:25.870 ,4,0,0.,12.0,0.,12.0,0.,12.0,0.,12.0
1979-08-03 04:09:37.870 ,3,1,0.,12.0,0.,12.0,0.,12.0,0.,12.0
1979-08-03 04:09:49.870 ,3,1,0.,12.0,0.,12.0,0.,12.0,0.,12.0
1979-08-03 04:10:01.870 ,3,0,0.,12.0,0.,12.0,0.,12.0,0.,12.0
1979-08-03 04:10:13.870 ,3,0,0.,12.0,0.,12.0,0.,12.0,0.,12.0
1979-08-03 04:10:25.870 ,0,0,0.,12.0,0.,12.0,0.,12.0,0.,12.0
1979-08-03 04:10:37.870 ,0,0,,0,,0,,0,,0
1979-08-03 04:10:49.870 ,2,1,0.,12.0,0.,12.0,0.,12.0,0.,12.0
1979-08-03 04:11:01.870 ,2,1,0.,12.0,0.,12.0,0.,12.0,0.,12.0
1979-08-03 04:11:13.870 ,1,1,,0,,0,,0,,0
1979-08-03 04:11:25.870 ,1,1,0.,12.0,0.,12.0,0.,12.0,0.,12.0
1979-08-03 04:11:37.870 ,0,0,0.,12.0,0.,12.0,0.,12.0,0.,12.0
1979-08-03 04:11:49.870 ,0,0,,0,,0,,0,,0
1979-08-03 04:12:01.870 ,0,1,0.,12.0,0.,12.0,0.,12.0,0.,12.0
1979-08-03 04:12:13.870 ,0,1,0.,12.0,0.,12.0,0.,12.0,0.,12.0
1979-08-03 04:12:25.870 ,0,0,0.,12.0,0.,12.0,0.,12.0,0.,12.0
1979-08-03 04:12:37.870 ,0,0,0.,12.0,0.,12.0,0.,12.0,0.,12.0
1979-08-03 04:12:49.870 ,0,1,0.,12.0,0.,12.0,0.,12.0,0.,12.0
1979-08-03 04:13:01.870 ,0,1,0.,12.0,0.,12.0,0.,12.0,0.,12.0
1979-08-03 04:13:13.870 ,0,0,0.,12.0,0.,12.0,0.,12.0,0.,12.0
1979-08-03 04:13:25.870 ,0,0,0.,12.0,0.,12.0,0.,12.0,0.,12.0
1979-08-03 04:13:37.870 ,1,1,0.,12.0,0.,12.0,0.,12.0,0.,12.0
1979-08-03 04:13:49.870 ,1,1,0.,12.0,0.,12.0,0.,12.0,0.,12.0
1979-08-03 04:14:01.870 ,1,0,0.,12.0,0.,12.0,0.,12.0,0.,12.0
1979-08-03 04:14:13.870 ,1,0,0.,12.0,0.,12.0,0.,12.0,0.,12.0
1979-08-03 04:14:25.870 ,2,1,0.,12.0,0.,12.0,0.,12.0,0.,12.0
1979-08-03 04:14:37.870 ,2,1,0.,12.0,0.,12.0,0.,12.0,0.,12.0
1979-08-03 04:14:49.870 ,2,0,0.,12.0,0.,12.0,0.,12.0,0.,12.0
1979-08-03 04:15:01.870 ,2,0,0.,12.0,0.,12.0,0.,12.0,0.,12.0
1979-08-03 04:15:13.870 ,3,1,,0,,0,,0,,0
1979-08-03 04:15:25.870 ,3,1,0.,12.0,0.,12.0,0.,12.0,0.,12.0
1979-08-03 04:15:37.870 ,3,0,0.,12.0,0.,12.0,0.,12.0,0.,12.0
1979-08-03 04:15:49.870 ,3,0,0.,12.0,0.,12.0,0.,12.0,0.,12.0
1979-08-03 04:16:01.870 ,4,1,,0,,0,,0,,0
1979-08-03 04:16:13.870 ,4,1,0.,12.0,0.,12.0,0.,12.0,0.,12.0
1979-08-03 04:16:25.870 ,4,0,0.,12.0,0.,12.0,0.,12.0,0.,12.0
1979-08-03 04:16:37.870 ,4,0,0.,12.0,0.,12.0,0.,12.0,0.,12.0
1979-08-03 04:16:49.870 ,5,1,0.,12.0,0.,12.0,0.,12.0,0.,12.0
1979-08-03 04:17:01.870 ,5,1,0.,12.0,0.,12.0,0.,12.0,0.,12.0
1979-08-03 04:17:13.870 ,0,0,0.,12.0,0.,12.0,0.,12.0,0.,12.0
1979-08-03 04:17:25.870 ,0,0,0.,12.0,0.,12.0,0.,12.0,0.,12.0
1979-08-03 04:17:37.870 ,6,1,0.,12.0,0.,12.0,0.,12.0,0.,12.0
1979-08-03 04:17:49.870 ,6,1,0.,12.0,0.,12.0,0.,12.0,0.,12.0
1979-08-03 04:18:01.870 ,6,0,0.,12.0,0.,12.0,0.,12.0,0.,12.0
1979-08-03 04:18:13.870 ,6,0,0.,12.0,0.,12.0,0.,12.0,0.,12.0
1979-08-03 04:18:25.870 ,7,0,0.,12.0,0.,12.0,0.,12.0,0.,12.0
1979-08-03 04:18:37.870 ,7,0,,0,,0,,0,,0
1979-08-03 04:18:49.870 ,7,0,0.,12.0,0.,12.0,0.,12.0,0.,12.0
1979-08-03 04:19:01.870 ,7,0,,0,,0,,0,,0
1979-08-03 04:19:13.870 ,4,1,0.,12.0,0.,12.0,0.,12.0,0.,12.0
1979-08-03 04:19:25.870 ,4,1,0.,12.0,0.,12.0,0.,12.0,0.,12.0
1979-08-03 04:19:37.870 ,0,1,0.,12.0,0.,12.0,0.,12.0,0.,12.0
1979-08-03 04:19:49.870 ,0,1,0.,12.0,0.,12.0,0.,12.0,0.,12.0
1979-08-03 04:20:01.870 ,3,1,0.,12.0,0.,12.0,0.,12.0,0.,12.0
1979-08-03 04:20:13.870 ,3,1,0.,12.0,0.,12.0,0.,12.0,0.,12.0
1979-08-03 04:20:25.870 ,7,1,,0,,0,,0,,0
1979-08-03 04:20:37.870 ,7,1,,0,,0,,0,,0
1979-08-03 04:20:49.870 ,4,1,0.,12.0,0.,12.0,0.,12.0,0.,12.0
1979-08-03 04:21:01.870 ,4,1,0.,12.0,0.,12.0,0.,12.0,0.,12.0
1979-08-03 04:21:13.870 ,0,1,0.,12.0,0.,12.0,0.,12.0,0.,12.0
1979-08-03 04:21:25.870 ,0,1,0.,12.0,0.,12.0,0.,12.0,0.,12.0
1979-08-03 04:21:37.870 ,3,1,0.,12.0,0.,12.0,0.,12.0,0.,12.0
1979-08-03 04:21:49.870 ,3,1,0.,12.0,0.,12.0,0.,12.0,0.,12.0
1979-08-03 04:22:01.870 ,5,1,0.,12.0,0.,12.0,0.,12.0,0.,12.0
1979-08-03 04:22:13.870 ,5,1,,0,,0,,0,,0
1979-08-03 04:22:25.870 ,4,1,0.,12.0,0.,12.0,0.,12.0,0.,12.0